KLM12L EHAM-EDDW

Flight info

Callsign KLM12L
Flight time N/A
Altitude 33000
Route ANDIK N873 JUIST DCT DOSUR DCT TALSA P729 TUDLO
Aircraft A320/M-SDE3FGHIRWY/LB1

Departure

Time N/A
Airport Amsterdam Airport Schiphol (EHAM)

Arrival

Time 2026-04-30 19:02
Airport Bremen Airport (EDDW)
Time Latitude Longitude Altitude Speed Heading
2026-04-30 18:38 53.50776 6.71554 33387 ft 421 kts 51°
2026-04-30 18:38 53.52626 6.75366 33391 ft 421 kts 50°
2026-04-30 18:39 53.56304 6.82960 33119 ft 417 kts 50°
2026-04-30 18:39 53.58135 6.86742 32470 ft 412 kts 50°
2026-04-30 18:39 53.59944 6.90483 31804 ft 409 kts 50°
2026-04-30 18:39 53.61727 6.94175 31200 ft 405 kts 51°
2026-04-30 18:40 53.63494 6.97846 30560 ft 402 kts 51°
2026-04-30 18:40 53.65243 7.01486 29907 ft 398 kts 51°
2026-04-30 18:40 53.66973 7.05089 29208 ft 394 kts 51°
2026-04-30 18:40 53.68690 7.08671 28585 ft 389 kts 51°
2026-04-30 18:41 53.70385 7.12214 27932 ft 386 kts 52°
2026-04-30 18:41 53.71831 7.15974 27316 ft 380 kts 68°
2026-04-30 18:41 53.72452 7.20257 26715 ft 375 kts 87°
2026-04-30 18:41 53.72160 7.24583 26094 ft 372 kts 107°
2026-04-30 18:42 53.70991 7.28439 25521 ft 369 kts 127°
2026-04-30 18:42 53.67031 7.33889 24287 ft 369 kts 143°
2026-04-30 18:42 53.64926 7.36364 23663 ft 367 kts 143°
2026-04-30 18:45 53.41529 7.42100 18322 ft 347 kts 184°
2026-04-30 18:45 53.39178 7.41616 17814 ft 344 kts 184°
2026-04-30 18:45 53.36784 7.41115 17321 ft 341 kts 184°
2026-04-30 18:46 53.34462 7.40621 16861 ft 338 kts 184°
2026-04-30 18:46 53.32111 7.40112 16411 ft 335 kts 184°
2026-04-30 18:46 53.29806 7.39607 15953 ft 332 kts 184°
2026-04-30 18:46 53.27526 7.39116 15529 ft 329 kts 181°
2026-04-30 18:47 53.25278 7.39230 15109 ft 319 kts 164°
2026-04-30 18:47 53.23298 7.40662 14698 ft 307 kts 141°
2026-04-30 18:47 53.21899 7.43265 14292 ft 300 kts 118°
2026-04-30 18:47 53.20980 7.46373 13798 ft 298 kts 114°
2026-04-30 18:48 53.20129 7.49481 13326 ft 296 kts 114°
2026-04-30 18:48 53.19271 7.52633 12847 ft 294 kts 114°
2026-04-30 18:48 53.18427 7.55740 12373 ft 293 kts 114°
2026-04-30 18:48 53.17591 7.58816 11906 ft 291 kts 114°
2026-04-30 18:49 53.16760 7.61872 11442 ft 289 kts 114°
2026-04-30 18:49 53.15929 7.64929 10978 ft 287 kts 114°
2026-04-30 18:49 53.15108 7.67950 10510 ft 286 kts 113°
2026-04-30 18:49 53.14289 7.70931 10011 ft 285 kts 114°
2026-04-30 18:50 53.13464 7.73920 9494 ft 283 kts 114°
2026-04-30 18:50 53.12646 7.76888 8995 ft 281 kts 114°
2026-04-30 18:50 53.11825 7.79873 8486 ft 279 kts 114°
2026-04-30 18:50 53.11031 7.82760 7990 ft 277 kts 114°
2026-04-30 18:51 53.10227 7.85695 7476 ft 274 kts 114°
2026-04-30 18:51 53.09450 7.88540 7007 ft 272 kts 114°
2026-04-30 18:51 53.08669 7.91398 6467 ft 270 kts 114°
2026-04-30 18:51 53.07901 7.94234 5956 ft 268 kts 114°
2026-04-30 18:52 53.07156 7.97040 5561 ft 260 kts 114°
2026-04-30 18:52 53.06453 7.99734 5268 ft 250 kts 114°
2026-04-30 18:52 53.05771 8.02369 5010 ft 247 kts 114°
2026-04-30 18:52 53.05083 8.05040 5010 ft 248 kts 114°
2026-04-30 18:53 53.04404 8.07678 5012 ft 249 kts 114°
2026-04-30 18:53 53.03734 8.10298 5009 ft 247 kts 114°
2026-04-30 18:53 53.03071 8.12882 5010 ft 238 kts 114°
2026-04-30 18:53 53.02427 8.15394 5009 ft 236 kts 114°
2026-04-30 18:54 53.01776 8.17910 5009 ft 237 kts 114°
2026-04-30 18:54 53.01122 8.20418 5010 ft 235 kts 114°
2026-04-30 18:54 53.00496 8.22817 5010 ft 220 kts 114°
2026-04-30 18:54 52.99892 8.25135 5013 ft 218 kts 112°
2026-04-30 18:55 52.99385 8.27497 5012 ft 217 kts 108°
2026-04-30 18:55 52.99797 8.32426 5013 ft 225 kts 66°
2026-04-30 18:55 53.00536 8.34622 5015 ft 211 kts 64°
2026-04-30 18:56 53.01972 8.38726 4651 ft 203 kts 64°
2026-04-30 18:56 53.02669 8.40727 4253 ft 199 kts 64°
2026-04-30 18:56 53.03361 8.42722 3714 ft 198 kts 63°
2026-04-30 18:57 53.04564 8.46754 2765 ft 187 kts 87°
2026-04-30 18:57 53.04447 8.48787 2732 ft 176 kts 102°
2026-04-30 18:57 53.04292 8.50803 2759 ft 173 kts 95°
2026-04-30 18:58 53.04252 8.54744 2498 ft 165 kts 91°
2026-04-30 18:58 53.04265 8.56664 2065 ft 162 kts 91°
2026-04-30 18:58 53.04287 8.58481 2065 ft 154 kts 91°
2026-04-30 18:59 53.04341 8.61859 1522 ft 143 kts 91°
2026-04-30 19:00 53.04420 8.66186 1035 ft 139 kts 91°
2026-04-30 19:00 53.04461 8.68255 1030 ft 132 kts 90°
2026-04-30 19:00 53.04513 8.70734 528 ft 129 kts 90°
2026-04-30 19:01 53.04572 8.73813 474 ft 136 kts 90°
2026-04-30 19:01 53.04627 8.75389 264 ft 136 kts 88°
2026-04-30 19:02 53.04674 8.78537 23 ft 134 kts 89°
2026-04-30 19:02 53.04782 8.81393 24 ft 9 kts